Terminal Aerodrome Forecast
Issued by NWS Spokane, WA

Home | Current Version | Previous Version | Text Only | Print | Product List | Glossary On
Versions: 1 2 3 4 5 6 7 8 9 10 11 12 13 14 15 16 17 18 19 20 21 22 23 24 25 26 27 28 29
000
FTUS46 KOTX 241124
TAFGEG
TAF
KGEG 241124Z 2412/2512 20014KT P6SM SCT050
     FM241500 23018G26KT P6SM SCT030 BKN050 BKN150
     FM250300 23014KT P6SM SCT060
     FM250600 21009KT P6SM FEW060=

USA.gov is the U.S. government's official web portal to all federal, state and local government web resources and services.